sat.trackr.live / text

‹ back to catalog

STARLINK-4568

NORAD 53622 · 2022-104AL

PAYLOAD ACTIVE UNKNOWN

§ Identity

Operator
Country
US
Launch date
2022-08-28
Launch site
AFETR
Launch vehicle
Mass (kg)
RCS (m²)

Purposes: comms

External: N2YO · Heavens-Above · Gunter

§ Orbital elements

Epoch: 2026-09-19T21:05:35.687328Z

Period
93.85 min
Inclination
53.1611°
Eccentricity
0.0001204
Mean motion
15.34393417 rev/d
Perigee alt
461.9 km
Apogee alt
463.5 km
Semi-major
6,840.9 km
B*
2.5756e-5
RAAN
70.3037°
Arg perigee
84.5992°
Mean anomaly
275.5148°
Rev number
22,522

§ Raw data

STARLINK-45681 53622U 22104AL  26262.87888527  .00000494  00000+0  25756-4 0  99932 53622  53.1611  70.3037 0001204  84.5992 275.5148 15.34393417225226

JSON: /api/v1/satellites/53622 · /tle

For live sub-satellite position, see the globe view (requires WebGL).

§ Visibility from observer

Set your observer location to see the next 7 days of passes ≥ 10°. The values pass through the URL so the page stays shareable.

No JS? Fill the form by hand. The geolocation button needs JavaScript.